Погода в Яксатове

Россия / Астраханская область     46°14′38″N   48°00′57″E
темп.,
°C
ветер,
м/с
пор.,
м/с
влажн.,
%
обл.,
%
осадки,
мм/ч
давл.,
гПа
погр.,
м
21 апреля, ср
ср2101:00+15вюв71561100 0.4 1014533
04:00+14в71362100 0.5 1014492
07:00+14в71067100 0.0 1015445
10:00+16вюв71058100 0.4 1016705
13:00+19юв5646100 0.0 10171395
16:00+20вюв4643100 0.0 10161363
19:00+18св3555100 0.4 1017479
22:00+15ссз6106797 0.6 1018311
22 апреля, чт
чт2201:00+14сз586655 0.3 1018210
04:00+13ссз5117022 0.7 1019319
07:00+13с495594 0.0 1020329
10:00+13ссз71056100 0.1 1021395
13:00+15ссз7948100 0.0 1022765
16:00+14с6962100 0.0 1021603
19:00+14с610635 0.0 1021611
22:00+12с59745 0.0 1021280
23 апреля, пт
пт2301:00+11с5107188 0.0 1019268
04:00+10ссз61067100 0.2 1019404
07:00+9ссз6979100 0.9 1019313
10:00+9сз5777100 1.7 1019392
13:00+15сз784394 0.1 10181155
16:00+17сз8942100 0.1 10181517
19:00+15ссз69485 0.0 1018861
22:00+12сз34570 0.0 1019105
24 апреля, сб
сб2401:00+10ссз23645 0.0 101856
04:00+9зсз22695 0.0 101825
07:00+11св1165100 0.0 101934
10:00+16юз244971 0.0 1020634
13:00+20зюз55395 0.0 10191631
16:00+21з45305 0.0 10181992
19:00+18ююз684928 0.0 1019486
22:00+15ююз5106097 0.0 1020375
25 апреля, вс
вс2501:00+14ююз4106855 0.0 1020278
04:00+14юз3563100 0.0 1020176
07:00+15ссз1264100 0.0 1020137
10:00+17всв2356100 0.0 1020581
13:00+20вюв3439100 0.0 10191797
16:00+20вюв5535100 0.0 10161286
19:00+18в4540100 0.0 1015642
22:00+16св3646100 0.0 1015219